Home > Weather > Wellington > Past weeks

Flag for New Zealand Past Weather in Wellington, New Zealand — Yesterday and Last 2 Weeks

Now
48 °F

Overcast.


Feels Like: 48 °F
Forecast: 46 / 53 °F
Wind: 1 mph from Northeast

Location: Wellington Airport

Current Time: Aug 25, 2016 at 6:23:15 AM

Latest Report: Aug 25, 2016 at 5:30 AM


Visibility: N/A

Pressure: 29.83 "Hg

Humidity: 87%

Dew Point: 45 °F

Location of WellingtonLocation

Past Weather in Wellington — Graph

°F

Wellington Temperature Yesterday

Maximum temperature yesterday: 52 °F (at 2:00 PM)
Minimum temperature yesterday: 43 °F (at 5:00 AM)
Average temperature yesterday: 48 °F

High & Low Weather Summary for the Past Weeks

 TemperatureHumidityPressure
High59 °F (Aug 20, 1:00 PM)100% (Aug 13, 2:00 AM)30.45 "Hg (Aug 13, 2:00 AM)
Low34 °F (Aug 11, 6:30 AM)48% (Aug 20, 1:30 PM)29.86 "Hg (Aug 13, 12:00 PM)
Average49 °F81%30.16 "Hg
* Reported Aug 10 5:00 AM — Aug 25 5:00 AM, Wellington, Weather by CustomWeather, © 2016

Note: Actual official high and low records may vary slightly from our data, if they occured in-between our weather recording intervals... More about our weather records

Advertising

Wellington Weather History for the Previous 24 Hours

Scroll right to see more
 ConditionsComfort  
Time TempWeatherWind HumidityBarometerVisibility
5:00 AM
Thu, Aug 25
48 °FOvercast.3 mph87%29.86 "HgN/A
4:30 AM48 °FOvercast.2 mph87%29.86 "HgN/A
4:00 AM48 °FOvercast.1 mph82%29.86 "HgN/A
3:30 AM48 °FOvercast.2 mph82%29.86 "HgN/A
3:00 AM48 °FOvercast.1 mph82%29.86 "HgN/A
2:30 AM48 °FOvercast.2 mph82%29.89 "HgN/A
2:00 AM48 °FOvercast.3 mph82%29.92 "HgN/A
1:30 AM48 °FOvercast.3 mph82%29.92 "HgN/A
1:00 AM48 °FOvercast.1 mph82%29.92 "HgN/A
12:30 AM48 °FSprinkles. Mostly cloudy.2 mph82%29.92 "HgN/A
12:00 AM48 °FMostly cloudy.2 mph82%29.92 "HgN/A
11:30 PM
Wed, Aug 24
48 °FMostly cloudy.5 mph82%29.92 "HgN/A
11:00 PM46 °FPassing clouds.6 mph87%29.92 "HgN/A
10:30 PM46 °FPassing clouds.7 mph87%29.92 "HgN/A
10:00 PM48 °FMostly cloudy.6 mph82%29.95 "HgN/A
9:30 PM48 °FMostly cloudy.5 mph82%29.98 "HgN/A
9:00 PM48 °FSprinkles. Passing clouds.6 mph82%29.98 "HgN/A
8:30 PM48 °FPassing clouds.5 mph82%29.98 "HgN/A
8:00 PM48 °FLight rain. Passing clouds.3 mph82%29.95 "HgN/A
7:30 PM48 °FSprinkles. Partly cloudy.7 mph82%29.98 "HgN/A
7:00 PM48 °FDrizzle. Mostly cloudy.8 mph76%29.98 "HgN/A
6:30 PM48 °FLight rain. Mostly cloudy.8 mph76%29.95 "HgN/A
6:00 PM50 °FPassing clouds.6 mph76%29.95 "HgN/A
5:30 PM50 °FPassing clouds.3 mph76%29.95 "HgN/A
5:00 PM50 °FPassing clouds.2 mph76%29.95 "HgN/A
4:30 PM50 °FOvercast.2 mph76%29.95 "HgN/A
4:00 PM50 °FSprinkles. Broken clouds.5 mph71%29.95 "HgN/A
3:30 PM50 °FDrizzle. Overcast.9 mph76%29.98 "HgN/A
3:00 PM50 °FOvercast.8 mph76%29.98 "HgN/A
2:30 PM52 °FOvercast.3 mph72%29.98 "HgN/A
2:00 PM52 °FOvercast.2 mph72%29.98 "HgN/A
1:30 PM50 °FOvercast.3 mph76%30.01 "HgN/A
1:00 PM50 °FMostly cloudy.6 mph82%30.04 "HgN/A
12:30 PM50 °FOvercast.3 mph76%30.04 "HgN/A
12:00 PM50 °FCool.3 mph76%30.04 "HgN/A
11:30 AM50 °FCool.3 mph82%30.07 "HgN/A
11:00 AM50 °FCool.5 mph76%30.07 "HgN/A
10:30 AM48 °FCool.5 mph87%30.07 "HgN/A
10:00 AM48 °FPassing clouds.2 mph87%30.09 "HgN/A
9:30 AM46 °FPartly sunny.2 mph93%30.09 "HgN/A
9:00 AM46 °FPartly sunny.2 mph87%30.09 "HgN/A
8:30 AM46 °FOvercast.3 mph93%30.09 "HgN/A
8:00 AM45 °FPartly sunny.5 mph93%30.12 "HgN/A
7:30 AM43 °FQuite cool.5 mph93%30.09 "HgN/A
7:00 AM43 °FQuite cool.2 mph93%30.07 "HgN/A
6:30 AM43 °FQuite cool.3 mph100%30.07 "HgN/A
6:00 AM43 °FQuite cool.2 mph93%30.07 "HgN/A
Weather by CustomWeather, © 2016

See weather overviewHow to use our weather pages